"Period start","avg(HW err(1)/warn(2) (#))","avg(Visibility (m))","avg(Weather code (#))","avg(Precip intensity (mm/h))","min(HW err(1)/warn(2) (#))","max(HW err(1)/warn(2) (#))","std(HW err(1)/warn(2) (#))","med(HW err(1)/warn(2) (#))","min(Visibility (m))","max(Visibility (m))","std(Visibility (m))","med(Visibility (m))","min(Weather code (#))","max(Weather code (#))","std(Weather code (#))","med(Weather code (#))","min(Precip intensity (mm/h))","max(Precip intensity (mm/h))","std(Precip intensity (mm/h))","med(Precip intensity (mm/h))"
2016-07-20 00:00:00,0,49129,0,0.00,0,0,0,0,44864,50000,1718,50000,0,0,0,0,0.00,0.00,0.00,0.00
2016-07-20 00:10:00,2,43730,0,0.00,0,2,1,2,35559,50000,4441,43553,0,0,0,0,0.00,0.00,0.00,0.00
2016-07-20 00:20:00,2,41820,0,0.00,0,2,1,2,31773,50000,6427,40458,0,0,0,0,0.00,0.00,0.00,0.00
2016-07-20 00:30:00,2,46072,0,0.00,2,2,0,2,39048,50000,3973,47880,0,0,0,0,0.00,0.00,0.00,0.00
2016-07-20 00:40:00,2,41037,0,0.00,0,2,1,2,27712,50000,7162,42326,0,0,0,0,0.00,0.00,0.00,0.00
2016-07-20 00:50:00,1,42512,0,0.00,0,2,1,2,33495,50000,6116,41657,0,0,0,0,0.00,0.00,0.00,0.00
2016-07-20 01:00:00,2,43385,0,0.00,2,2,0,2,31269,50000,6388,45507,0,0,0,0,0.00,0.00,0.00,0.00
2016-07-20 01:10:00,2,38221,0,0.00,2,2,0,2,19053,50000,9742,37136,0,0,0,0,0.00,0.00,0.00,0.00
2016-07-20 01:20:00,1,46588,0,0.00,0,2,1,2,39898,50000,3154,47187,0,0,0,0,0.00,0.00,0.00,0.00
2016-07-20 01:30:00,2,47504,0,0.00,0,2,1,2,40956,50000,3546,49650,0,0,0,0,0.00,0.00,0.00,0.00
2016-07-20 01:40:00,2,47215,0,0.00,2,2,0,2,37339,50000,3919,49122,0,0,0,0,0.00,0.00,0.00,0.00
2016-07-20 01:50:00,2,47732,0,0.00,2,2,0,2,43169,50000,2459,48908,0,0,0,0,0.00,0.00,0.00,0.00
2016-07-20 02:00:00,2,42258,0,0.00,2,2,0,2,33819,50000,5228,41795,0,0,0,0,0.00,0.00,0.00,0.00
2016-07-20 02:10:00,2,47336,0,0.00,2,2,0,2,35616,50000,4493,49918,0,0,0,0,0.00,0.00,0.00,0.00
2016-07-20 02:20:00,2,42429,0,0.00,2,2,0,2,28395,49960,6278,42560,0,0,0,0,0.00,0.00,0.00,0.00
2016-07-20 02:30:00,2,38072,0,0.00,2,2,0,2,29393,50000,6075,37958,0,0,0,0,0.00,0.00,0.00,0.00
2016-07-20 02:40:00,2,39315,0,0.00,2,2,0,2,24744,49156,7028,38788,0,0,0,0,0.00,0.00,0.00,0.00
2016-07-20 02:50:00,2,44347,0,0.00,2,2,0,2,31954,50000,7215,49162,0,0,0,0,0.00,0.00,0.00,0.00
2016-07-20 03:00:00,2,40004,0,0.00,2,2,0,2,28296,47976,6876,40996,0,0,0,0,0.00,0.00,0.00,0.00
2016-07-20 03:10:00,2,43431,0,0.00,2,2,0,2,35035,50000,5740,44238,0,0,0,0,0.00,0.00,0.00,0.00
2016-07-20 03:20:00,2,41916,0,0.00,2,2,0,2,24236,50000,9443,47446,0,0,0,0,0.00,0.00,0.00,0.00
2016-07-20 03:30:00,2,44845,0,0.00,0,2,1,2,35147,50000,5013,46470,0,0,0,0,0.00,0.00,0.00,0.00
2016-07-20 03:40:00,1,45055,0,0.00,0,2,1,2,40096,50000,4043,44532,0,0,0,0,0.00,0.00,0.00,0.00
2016-07-20 03:50:00,1,43935,0,0.00,0,2,1,0,31846,50000,6873,47434,0,0,0,0,0.00,0.00,0.00,0.00
2016-07-20 04:00:00,0,46590,0,0.00,0,0,0,0,42957,50000,2694,46377,0,0,0,0,0.00,0.00,0.00,0.00
2016-07-20 04:10:00,0,47490,0,0.00,0,0,0,0,40568,50000,3264,49303,0,0,0,0,0.00,0.00,0.00,0.00
2016-07-20 04:20:00,1,47759,0,0.00,0,2,1,0,40699,50000,3017,49521,0,0,0,0,0.00,0.00,0.00,0.00
2016-07-20 04:30:00,0,46512,0,0.00,0,2,1,0,39145,50000,3694,47724,0,0,0,0,0.00,0.00,0.00,0.00
2016-07-20 04:40:00,0,45959,0,0.00,0,0,0,0,37168,50000,4661,47605,0,0,0,0,0.00,0.00,0.00,0.00
2016-07-20 04:50:00,0,49100,0,0.00,0,0,0,0,46670,50000,1158,49656,0,0,0,0,0.00,0.00,0.00,0.00
2016-07-20 05:00:00,0,48390,0,0.00,0,0,0,0,38561,50000,3558,50000,0,0,0,0,0.00,0.00,0.00,0.00
2016-07-20 05:10:00,0,49790,0,0.00,0,0,0,0,48188,50000,541,50000,0,0,0,0,0.00,0.00,0.00,0.00
2016-07-20 05:20:00,0,49212,0,0.00,0,0,0,0,44022,50000,1820,50000,0,0,0,0,0.00,0.00,0.00,0.00
2016-07-20 05:30:00,0,49966,0,0.00,0,0,0,0,49776,50000,73,50000,0,0,0,0,0.00,0.00,0.00,0.00
2016-07-20 05:40:00,0,49751,0,0.00,0,0,0,0,47507,50000,748,50000,0,0,0,0,0.00,0.00,0.00,0.00
2016-07-20 05:50:00,0,48642,0,0.00,0,0,0,0,46151,50000,1688,50000,0,0,0,0,0.00,0.00,0.00,0.00
2016-07-20 06:00:00,0,49385,0,0.00,0,0,0,0,47348,50000,857,50000,0,0,0,0,0.00,0.00,0.00,0.00
2016-07-20 06:10:00,0,46629,0,0.00,0,0,0,0,39067,50000,3806,48514,0,0,0,0,0.00,0.00,0.00,0.00
2016-07-20 06:20:00,0,48849,0,0.00,0,0,0,0,41144,50000,2687,50000,0,0,0,0,0.00,0.00,0.00,0.00
2016-07-20 06:30:00,0,49302,0,0.00,0,0,0,0,46602,50000,1193,50000,0,0,0,0,0.00,0.00,0.00,0.00
2016-07-20 06:40:00,0,48364,0,0.00,0,0,0,0,39027,50000,3417,50000,0,0,0,0,0.00,0.00,0.00,0.00
2016-07-20 06:50:00,0,49844,0,0.00,0,0,0,0,48624,50000,410,50000,0,0,0,0,0.00,0.00,0.00,0.00
2016-07-20 07:00:00,0,49713,0,0.00,0,0,0,0,47134,50000,860,50000,0,0,0,0,0.00,0.00,0.00,0.00
2016-07-20 07:10:00,0,49898,0,0.00,0,0,0,0,49478,50000,205,50000,0,0,0,0,0.00,0.00,0.00,0.00
2016-07-20 07:20:00,0,49638,0,0.00,0,0,0,0,47666,50000,761,50000,0,0,0,0,0.00,0.00,0.00,0.00
2016-07-20 07:30:00,0,49792,0,0.00,0,0,0,0,47924,50000,623,50000,0,0,0,0,0.00,0.00,0.00,0.00
2016-07-20 07:40:00,0,49964,0,0.00,0,0,0,0,49639,50000,108,50000,0,0,0,0,0.00,0.00,0.00,0.00
2016-07-20 07:50:00,0,48680,0,0.00,0,0,0,0,40796,50000,2794,50000,0,0,0,0,0.00,0.00,0.00,0.00
2016-07-20 08:00:00,0,49667,0,0.00,0,0,0,0,47905,50000,693,50000,0,0,0,0,0.00,0.00,0.00,0.00
2016-07-20 08:10:00,0,49920,0,0.00,0,0,0,0,49205,50000,238,50000,0,0,0,0,0.00,0.00,0.00,0.00
2016-07-20 08:20:00,0,48681,0,0.00,0,0,0,0,43433,50000,2166,50000,0,0,0,0,0.00,0.00,0.00,0.00
2016-07-20 08:30:00,0,50000,0,0.00,0,0,0,0,50000,50000,0,50000,0,0,0,0,0.00,0.00,0.00,0.00
2016-07-20 08:40:00,0,49742,0,0.00,0,0,0,0,48063,50000,587,50000,0,0,0,0,0.00,0.00,0.00,0.00
2016-07-20 08:50:00,0,50000,0,0.00,0,0,0,0,50000,50000,0,50000,0,0,0,0,0.00,0.00,0.00,0.00
2016-07-20 09:00:00,0,49005,0,0.00,0,0,0,0,44751,50000,1699,50000,0,0,0,0,0.00,0.00,0.00,0.00
2016-07-20 09:10:00,0,50000,0,0.00,0,0,0,0,50000,50000,0,50000,0,0,0,0,0.00,0.00,0.00,0.00
2016-07-20 09:20:00,0,49585,0,0.00,0,0,0,0,47777,50000,833,50000,0,0,0,0,0.00,0.00,0.00,0.00
2016-07-20 09:30:00,0,49338,0,0.00,0,0,0,0,46989,50000,1165,50000,0,0,0,0,0.00,0.00,0.00,0.00
2016-07-20 09:40:00,0,48211,0,0.00,0,0,0,0,38819,50000,3596,50000,0,0,0,0,0.00,0.00,0.00,0.00
2016-07-20 09:50:00,0,49926,0,0.00,0,0,0,0,49258,50000,223,50000,0,0,0,0,0.00,0.00,0.00,0.00
2016-07-20 10:00:00,0,49887,0,0.00,0,0,0,0,48873,50000,338,50000,0,0,0,0,0.00,0.00,0.00,0.00
2016-07-20 10:10:00,0,50000,0,0.00,0,0,0,0,50000,50000,0,50000,0,0,0,0,0.00,0.00,0.00,0.00
2016-07-20 10:20:00,0,50000,0,0.00,0,0,0,0,50000,50000,0,50000,0,0,0,0,0.00,0.00,0.00,0.00
2016-07-20 10:30:00,0,50000,0,0.00,0,0,0,0,50000,50000,0,50000,0,0,0,0,0.00,0.00,0.00,0.00
2016-07-20 10:40:00,0,50000,0,0.00,0,0,0,0,50000,50000,0,50000,0,0,0,0,0.00,0.00,0.00,0.00
2016-07-20 10:50:00,0,50000,0,0.00,0,0,0,0,50000,50000,0,50000,0,0,0,0,0.00,0.00,0.00,0.00
2016-07-20 11:00:00,0,50000,0,0.00,0,0,0,0,50000,50000,0,50000,0,0,0,0,0.00,0.00,0.00,0.00
2016-07-20 11:10:00,0,50000,0,0.00,0,0,0,0,50000,50000,0,50000,0,0,0,0,0.00,0.00,0.00,0.00
2016-07-20 11:20:00,0,50000,0,0.00,0,0,0,0,50000,50000,0,50000,0,0,0,0,0.00,0.00,0.00,0.00
2016-07-20 11:30:00,0,50000,0,0.00,0,0,0,0,50000,50000,0,50000,0,0,0,0,0.00,0.00,0.00,0.00
2016-07-20 11:40:00,0,50000,0,0.00,0,0,0,0,50000,50000,0,50000,0,0,0,0,0.00,0.00,0.00,0.00
2016-07-20 11:50:00,0,50000,0,0.00,0,0,0,0,50000,50000,0,50000,0,0,0,0,0.00,0.00,0.00,0.00
2016-07-20 12:00:00,0,50000,0,0.00,0,0,0,0,50000,50000,0,50000,0,0,0,0,0.00,0.00,0.00,0.00
2016-07-20 12:10:00,0,50000,0,0.00,0,0,0,0,50000,50000,0,50000,0,0,0,0,0.00,0.00,0.00,0.00
2016-07-20 12:20:00,0,50000,0,0.00,0,0,0,0,50000,50000,0,50000,0,0,0,0,0.00,0.00,0.00,0.00
2016-07-20 12:30:00,0,50000,0,0.00,0,0,0,0,50000,50000,0,50000,0,0,0,0,0.00,0.00,0.00,0.00
2016-07-20 12:40:00,0,50000,0,0.00,0,0,0,0,50000,50000,0,50000,0,0,0,0,0.00,0.00,0.00,0.00
2016-07-20 12:50:00,0,50000,0,0.00,0,0,0,0,50000,50000,0,50000,0,0,0,0,0.00,0.00,0.00,0.00
2016-07-20 13:00:00,0,50000,0,0.00,0,0,0,0,50000,50000,0,50000,0,0,0,0,0.00,0.00,0.00,0.00
2016-07-20 13:10:00,0,50000,0,0.00,0,0,0,0,50000,50000,0,50000,0,0,0,0,0.00,0.00,0.00,0.00
2016-07-20 13:20:00,0,50000,0,0.00,0,0,0,0,50000,50000,0,50000,0,0,0,0,0.00,0.00,0.00,0.00
2016-07-20 13:30:00,0,50000,0,0.00,0,0,0,0,50000,50000,0,50000,0,0,0,0,0.00,0.00,0.00,0.00
2016-07-20 13:40:00,0,50000,0,0.00,0,0,0,0,50000,50000,0,50000,0,0,0,0,0.00,0.00,0.00,0.00
2016-07-20 13:50:00,0,50000,0,0.00,0,0,0,0,50000,50000,0,50000,0,0,0,0,0.00,0.00,0.00,0.00
2016-07-20 14:00:00,0,50000,0,0.00,0,0,0,0,50000,50000,0,50000,0,0,0,0,0.00,0.00,0.00,0.00
2016-07-20 14:10:00,0,50000,0,0.00,0,0,0,0,50000,50000,0,50000,0,0,0,0,0.00,0.00,0.00,0.00
2016-07-20 14:20:00,0,50000,0,0.00,0,0,0,0,50000,50000,0,50000,0,0,0,0,0.00,0.00,0.00,0.00
2016-07-20 14:30:00,0,50000,0,0.00,0,0,0,0,50000,50000,0,50000,0,0,0,0,0.00,0.00,0.00,0.00
2016-07-20 14:40:00,0,50000,0,0.00,0,0,0,0,50000,50000,0,50000,0,0,0,0,0.00,0.00,0.00,0.00
2016-07-20 14:50:00,0,50000,0,0.00,0,0,0,0,50000,50000,0,50000,0,0,0,0,0.00,0.00,0.00,0.00
2016-07-20 15:00:00,0,50000,0,0.00,0,0,0,0,50000,50000,0,50000,0,0,0,0,0.00,0.00,0.00,0.00
2016-07-20 15:10:00,0,50000,0,0.00,0,0,0,0,50000,50000,0,50000,0,0,0,0,0.00,0.00,0.00,0.00
2016-07-20 15:20:00,0,50000,0,0.00,0,0,0,0,50000,50000,0,50000,0,0,0,0,0.00,0.00,0.00,0.00
2016-07-20 15:30:00,0,50000,0,0.00,0,0,0,0,50000,50000,0,50000,0,0,0,0,0.00,0.00,0.00,0.00
2016-07-20 15:40:00,0,50000,0,0.00,0,0,0,0,50000,50000,0,50000,0,0,0,0,0.00,0.00,0.00,0.00
2016-07-20 15:50:00,0,50000,0,0.00,0,0,0,0,50000,50000,0,50000,0,0,0,0,0.00,0.00,0.00,0.00
2016-07-20 16:00:00,0,50000,0,0.00,0,0,0,0,50000,50000,0,50000,0,0,0,0,0.00,0.00,0.00,0.00
2016-07-20 16:10:00,0,50000,0,0.00,0,0,0,0,50000,50000,0,50000,0,0,0,0,0.00,0.00,0.00,0.00
2016-07-20 16:20:00,0,50000,0,0.00,0,0,0,0,50000,50000,0,50000,0,0,0,0,0.00,0.00,0.00,0.00
2016-07-20 16:30:00,0,50000,0,0.00,0,0,0,0,50000,50000,0,50000,0,0,0,0,0.00,0.00,0.00,0.00
2016-07-20 16:40:00,0,50000,0,0.00,0,0,0,0,50000,50000,0,50000,0,0,0,0,0.00,0.00,0.00,0.00
2016-07-20 16:50:00,0,49973,0,0.00,0,0,0,0,49727,50000,82,50000,0,0,0,0,0.00,0.00,0.00,0.00
2016-07-20 17:00:00,0,50000,0,0.00,0,0,0,0,50000,50000,0,50000,0,0,0,0,0.00,0.00,0.00,0.00
2016-07-20 17:10:00,0,50000,0,0.00,0,0,0,0,50000,50000,0,50000,0,0,0,0,0.00,0.00,0.00,0.00
2016-07-20 17:20:00,0,50000,0,0.00,0,0,0,0,50000,50000,0,50000,0,0,0,0,0.00,0.00,0.00,0.00
2016-07-20 17:30:00,0,50000,0,0.00,0,0,0,0,50000,50000,0,50000,0,0,0,0,0.00,0.00,0.00,0.00
2016-07-20 17:40:00,0,50000,0,0.00,0,0,0,0,50000,50000,0,50000,0,0,0,0,0.00,0.00,0.00,0.00
2016-07-20 17:50:00,0,49956,0,0.00,0,0,0,0,49560,50000,132,50000,0,0,0,0,0.00,0.00,0.00,0.00
2016-07-20 18:00:00,0,48688,0,0.00,0,0,0,0,44732,50000,1795,50000,0,0,0,0,0.00,0.00,0.00,0.00
2016-07-20 18:10:00,0,48873,0,0.00,0,0,0,0,46797,50000,1395,50000,0,0,0,0,0.00,0.00,0.00,0.00
2016-07-20 18:20:00,0,50000,0,0.00,0,0,0,0,50000,50000,0,50000,0,0,0,0,0.00,0.00,0.00,0.00
2016-07-20 18:30:00,0,35206,0,0.00,0,0,0,0,9359,50000,16687,44523,0,0,0,0,0.00,0.00,0.00,0.00
2016-07-20 18:40:00,0,49787,0,0.00,0,0,0,0,47874,50000,638,50000,0,0,0,0,0.00,0.00,0.00,0.00
2016-07-20 18:50:00,0,49784,0,0.00,0,0,0,0,48607,50000,454,50000,0,0,0,0,0.00,0.00,0.00,0.00
2016-07-20 19:00:00,0,49977,0,0.00,0,0,0,0,49772,50000,68,50000,0,0,0,0,0.00,0.00,0.00,0.00
2016-07-20 19:10:00,0,50000,0,0.00,0,0,0,0,50000,50000,0,50000,0,0,0,0,0.00,0.00,0.00,0.00
2016-07-20 19:20:00,0,49684,0,0.00,0,0,0,0,46837,50000,949,50000,0,0,0,0,0.00,0.00,0.00,0.00
2016-07-20 19:30:00,0,50000,0,0.00,0,0,0,0,50000,50000,0,50000,0,0,0,0,0.00,0.00,0.00,0.00
2016-07-20 19:40:00,0,49245,0,0.00,0,0,0,0,47022,50000,1182,50000,0,0,0,0,0.00,0.00,0.00,0.00
2016-07-20 19:50:00,0,49927,0,0.00,0,0,0,0,49273,50000,218,50000,0,0,0,0,0.00,0.00,0.00,0.00
2016-07-20 20:00:00,0,49745,0,0.00,0,0,0,0,47447,50000,766,50000,0,0,0,0,0.00,0.00,0.00,0.00
2016-07-20 20:10:00,0,50000,0,0.00,0,0,0,0,50000,50000,0,50000,0,0,0,0,0.00,0.00,0.00,0.00
2016-07-20 20:20:00,0,49727,0,0.00,0,0,0,0,48577,50000,517,50000,0,0,0,0,0.00,0.00,0.00,0.00
2016-07-20 20:30:00,0,49445,0,0.00,0,0,0,0,46427,50000,1166,50000,0,0,0,0,0.00,0.00,0.00,0.00
2016-07-20 20:40:00,0,49947,0,0.00,0,0,0,0,49468,50000,160,50000,0,0,0,0,0.00,0.00,0.00,0.00
2016-07-20 20:50:00,0,49775,0,0.00,0,0,0,0,48212,50000,539,50000,0,0,0,0,0.00,0.00,0.00,0.00
2016-07-20 21:00:00,0,50000,0,0.00,0,0,0,0,50000,50000,0,50000,0,0,0,0,0.00,0.00,0.00,0.00
2016-07-20 21:10:00,0,49597,0,0.00,0,0,0,0,47399,50000,848,50000,0,0,0,0,0.00,0.00,0.00,0.00
2016-07-20 21:20:00,0,50000,0,0.00,0,0,0,0,50000,50000,0,50000,0,0,0,0,0.00,0.00,0.00,0.00
2016-07-20 21:30:00,0,50000,0,0.00,0,0,0,0,50000,50000,0,50000,0,0,0,0,0.00,0.00,0.00,0.00
2016-07-20 21:40:00,0,49748,0,0.00,0,0,0,0,47477,50000,757,50000,0,0,0,0,0.00,0.00,0.00,0.00
2016-07-20 21:50:00,0,49756,0,0.00,0,0,0,0,48453,50000,525,50000,0,0,0,0,0.00,0.00,0.00,0.00
2016-07-20 22:00:00,0,49859,0,0.00,0,0,0,0,48728,50000,379,50000,0,0,0,0,0.00,0.00,0.00,0.00
2016-07-20 22:10:00,0,49696,0,0.00,0,0,0,0,46960,50000,912,50000,0,0,0,0,0.00,0.00,0.00,0.00
2016-07-20 22:20:00,0,49173,0,0.00,0,0,0,0,44824,50000,1576,50000,0,0,0,0,0.00,0.00,0.00,0.00
2016-07-20 22:30:00,0,48630,0,0.00,0,0,0,0,44209,50000,1828,49577,0,0,0,0,0.00,0.00,0.00,0.00
2016-07-20 22:40:00,0,49772,0,0.00,0,0,0,0,48905,50000,395,50000,0,0,0,0,0.00,0.00,0.00,0.00
2016-07-20 22:50:00,0,49855,0,0.00,0,0,0,0,49002,50000,315,50000,0,0,0,0,0.00,0.00,0.00,0.00
2016-07-20 23:00:00,0,48809,0,0.00,0,0,0,0,41801,50000,2470,50000,0,0,0,0,0.00,0.00,0.00,0.00
2016-07-20 23:10:00,0,49275,0,0.00,0,0,0,0,45144,50000,1446,50000,0,0,0,0,0.00,0.00,0.00,0.00
2016-07-20 23:20:00,0,49618,0,0.00,0,0,0,0,46181,50000,1146,50000,0,0,0,0,0.00,0.00,0.00,0.00
2016-07-20 23:30:00,0,49638,0,0.00,0,0,0,0,46385,50000,1084,50000,0,0,0,0,0.00,0.00,0.00,0.00
2016-07-20 23:40:00,0,49814,0,0.00,0,0,0,0,48135,50000,560,50000,0,0,0,0,0.00,0.00,0.00,0.00
2016-07-20 23:50:00,0,48124,0,0.00,0,0,0,0,44577,50000,2208,49591,0,0,0,0,0.00,0.00,0.00,0.00
